Date String (YYYY-MM-DD hh:mm:ss) UTC,Instrument flags,Ambient pressure (hPa),Sample flow (lpm),Bypass flow (lpm),Sample temperature (°C),Ambient temperature (°C),ASC tube jacket temperature (°C),LED temperature (°C),Box temperature (°C),Sample RH (%),Span deviation,Mass concentration (μg/m³),Mass concentration (μg/m³),Mass concentration (μg/m³)
DateTimeUTC,F1_M11,P_M11,Q1_M11,Q2_M11,T1_M11,T2_M11,T3_M11,T4_M11,T5_M11,U1_M11,ZSPAN_M11,X0_M11,X2_M11,X1_M11
2023-03-08 23:00:00,,0823.1,5.01,0.00,22.4,20.8,00.0,31.2,24.1,14.8,-001.7,0015.59,0010.46,0009.87
2023-03-08 23:01:00,,0823.1,4.98,0.00,22.4,20.8,00.0,31.2,24.1,14.9,-001.5,0015.41,0010.33,0009.73
2023-03-08 23:02:00,,0823.1,5.01,0.00,22.4,21.2,00.0,31.2,24.2,14.8,-001.8,0015.10,0010.25,0009.64
2023-03-08 23:03:00,,0823.2,4.99,0.00,22.5,22.3,00.0,31.2,24.5,14.8,-002.2,0015.30,0010.19,0009.60
2023-03-08 23:04:00,,0823.2,5.04,0.00,22.7,23.2,00.0,31.2,24.7,14.6,-002.3,0015.68,0010.17,0009.56
2023-03-08 23:05:00,,0823.2,5.00,0.00,22.7,23.0,00.0,31.3,24.7,14.5,-002.2,0016.23,0010.19,0009.55
2023-03-08 23:06:00,,0823.1,4.98,0.00,22.8,22.6,00.0,31.3,24.7,14.5,-002.5,0016.26,0010.16,0009.53
2023-03-08 23:07:00,,0823.0,4.99,0.00,22.8,22.2,00.0,31.3,24.6,14.4,-002.5,0015.37,0010.11,0009.50
2023-03-08 23:08:00,,0823.0,5.00,0.00,22.8,21.9,00.0,31.4,24.6,14.5,-002.7,0015.06,0010.13,0009.51
2023-03-08 23:09:00,,0823.1,5.00,0.00,22.7,21.7,00.0,31.4,24.5,14.5,-002.9,0015.15,0010.16,0009.52
2023-03-08 23:10:00,,0823.1,5.00,0.00,22.7,21.6,00.0,31.4,24.5,14.5,-002.9,0015.19,0010.18,0009.53
2023-03-08 23:11:00,,0823.2,5.00,0.00,22.7,21.4,00.0,31.4,24.5,14.5,-002.7,0015.54,0010.20,0009.55
2023-03-08 23:12:00,,0823.1,5.00,0.00,22.7,21.3,00.0,31.4,24.4,14.5,-002.7,0015.51,0010.20,0009.56
2023-03-08 23:13:00,,0823.1,5.00,0.00,22.7,21.3,00.0,31.4,24.4,14.5,-002.8,0016.16,0010.18,0009.57
2023-03-08 23:14:00,,0823.1,5.00,0.00,22.7,21.2,00.0,31.4,24.4,14.4,-002.6,0016.86,0010.23,0009.60
2023-03-08 23:15:00,,0823.1,5.01,0.00,22.7,21.1,00.0,31.4,24.4,14.4,-002.7,0017.28,0010.28,0009.64
2023-03-08 23:16:00,,0823.1,5.00,0.00,22.6,21.1,00.0,31.4,24.4,14.4,-002.7,0016.86,0010.31,0009.66
2023-03-08 23:17:00,,0823.1,5.02,0.00,22.6,21.0,00.0,31.4,24.3,14.4,-002.6,0017.18,0010.30,0009.67
2023-03-08 23:18:00,,0823.1,5.00,0.00,22.6,21.0,00.0,31.4,24.3,14.4,-002.6,0017.62,0010.34,0009.70
2023-03-08 23:19:00,,0823.1,4.99,0.00,22.6,21.0,00.0,31.4,24.3,14.4,-002.5,0017.60,0010.36,0009.73
2023-03-08 23:20:00,,0823.1,5.00,0.00,22.6,21.0,00.0,31.4,24.3,14.5,-002.4,0017.84,0010.36,0009.75
2023-03-08 23:21:00,,0823.1,5.01,0.00,22.6,20.9,00.0,31.4,24.3,14.4,-002.4,0018.05,0010.41,0009.79
2023-03-08 23:22:00,,0823.1,5.00,0.00,22.6,20.9,00.0,31.3,24.2,14.4,-002.5,0018.53,0010.44,0009.84
2023-03-08 23:23:00,,0823.1,5.00,0.00,22.5,20.8,00.0,31.3,24.2,14.3,-002.6,0018.64,0010.50,0009.89
2023-03-08 23:24:00,,0823.1,4.99,0.00,22.5,20.8,00.0,31.3,24.2,14.3,-002.4,0018.20,0010.57,0009.94
2023-03-08 23:25:00,,0823.1,4.99,0.00,22.5,20.8,00.0,31.3,24.1,14.3,-002.4,0017.72,0010.64,0009.99
2023-03-08 23:26:00,,0823.0,5.00,0.00,22.5,20.8,00.0,31.3,24.2,14.3,-002.2,0017.12,0010.70,0010.03
2023-03-08 23:27:00,,0823.0,5.01,0.00,22.5,20.8,00.0,31.3,24.2,14.3,-002.3,0017.04,0010.73,0010.09
2023-03-08 23:28:00,,0822.9,4.99,0.00,22.5,20.8,00.0,31.3,24.2,14.3,-002.3,0017.06,0010.76,0010.14
2023-03-08 23:29:00,,0823.0,5.01,0.00,22.5,21.0,00.0,31.2,24.2,14.4,-002.2,0017.14,0010.77,0010.16
2023-03-08 23:30:00,,0823.0,5.02,0.00,22.5,22.0,00.0,31.2,24.5,14.3,-002.3,0017.16,0010.81,0010.19
2023-03-08 23:31:00,,0823.1,5.01,0.00,22.7,23.0,00.0,31.3,24.7,14.2,-002.5,0017.41,0010.84,0010.24
2023-03-08 23:32:00,,0823.1,4.99,0.00,22.8,23.1,00.0,31.3,24.8,14.2,-002.3,0017.70,0010.87,0010.26
2023-03-08 23:33:00,,0823.1,5.00,0.00,22.8,22.7,00.0,31.3,24.7,14.3,-002.3,0017.01,0010.88,0010.27
2023-03-08 23:34:00,,0823.1,5.00,0.00,22.8,22.3,00.0,31.4,24.6,14.7,-002.3,0016.90,0010.81,0010.22
2023-03-08 23:35:00,,0823.1,5.00,0.00,22.8,22.0,00.0,31.4,24.6,15.2,-002.4,0016.62,0010.62,0010.05
2023-03-08 23:36:00,,0823.1,4.99,0.00,22.8,21.7,00.0,31.4,24.5,15.4,-002.4,0015.83,0010.42,0009.87
2023-03-08 23:37:00,,0823.1,4.99,0.00,22.7,21.5,00.0,31.4,24.5,15.5,-002.2,0015.51,0010.19,0009.68
2023-03-08 23:38:00,,0823.2,5.01,0.00,22.7,21.3,00.0,31.4,24.4,15.6,-002.0,0015.33,0009.95,0009.47
2023-03-08 23:39:00,,0823.3,4.97,0.00,22.7,21.2,00.0,31.4,24.4,15.6,-001.7,0015.97,0009.77,0009.28
2023-03-08 23:40:00,,0823.2,4.96,0.00,22.7,21.1,00.0,31.4,24.3,15.6,-001.7,0015.33,0009.65,0009.13
2023-03-08 23:41:00,,0823.2,5.01,0.00,22.6,21.0,00.0,31.4,24.3,15.6,-001.6,0015.27,0009.51,0008.98
2023-03-08 23:42:00,,0823.1,5.01,0.00,22.6,20.9,00.0,31.4,24.3,15.6,-001.2,0014.87,0009.35,0008.81
2023-03-08 23:43:00,,0823.1,5.01,0.00,22.6,20.9,00.0,31.4,24.2,15.7,-001.2,0014.27,0009.20,0008.64
2023-03-08 23:44:00,,0823.1,5.00,0.00,22.6,20.8,00.0,31.4,24.2,15.8,-001.3,0014.08,0009.03,0008.46
2023-03-08 23:45:00,,0823.1,5.00,0.00,22.5,20.8,00.0,31.4,24.2,15.8,-001.4,0013.97,0008.91,0008.32
2023-03-08 23:46:00,,0823.1,5.00,0.00,22.5,20.8,00.0,31.3,24.2,15.8,-001.5,0014.09,0008.92,0008.29
2023-03-08 23:47:00,,0823.1,5.00,0.00,22.5,20.7,00.0,31.3,24.1,15.9,-001.6,0014.16,0008.92,0008.28
2023-03-08 23:48:00,,0823.1,5.01,0.00,22.5,20.9,00.0,31.3,24.1,15.9,-001.7,0014.75,0008.93,0008.28
2023-03-08 23:49:00,,0823.0,5.01,0.00,22.6,21.8,00.0,31.3,24.4,15.9,-001.9,0014.97,0008.98,0008.29
2023-03-08 23:50:00,,0823.1,5.00,0.00,22.7,22.9,00.0,31.3,24.7,15.8,-001.9,0014.63,0009.04,0008.32
2023-03-08 23:51:00,,0823.1,5.00,0.00,22.8,23.2,00.0,31.4,24.8,15.8,-001.9,0014.04,0009.00,0008.31
2023-03-08 23:52:00,,0823.1,4.98,0.00,22.8,22.7,00.0,31.4,24.7,15.7,-001.7,0013.92,0008.96,0008.29
2023-03-08 23:53:00,,0823.1,4.98,0.00,22.8,22.4,00.0,31.4,24.6,15.7,-001.8,0013.81,0008.92,0008.28
2023-03-08 23:54:00,,0823.2,5.00,0.00,22.8,22.0,00.0,31.4,24.5,15.8,-001.9,0013.86,0008.86,0008.26
2023-03-08 23:55:00,,0823.1,5.00,0.00,22.8,21.8,00.0,31.4,24.5,15.8,-001.8,0014.51,0008.87,0008.26
2023-03-08 23:56:00,,0823.1,4.99,0.00,22.8,21.6,00.0,31.4,24.4,15.8,-001.6,0014.34,0008.84,0008.26
2023-03-08 23:57:00,,0823.1,5.02,0.00,22.7,21.4,00.0,31.4,24.4,15.8,-001.3,0014.98,0008.83,0008.26
2023-03-08 23:58:00,,0823.1,5.01,0.00,22.7,21.3,00.0,31.4,24.4,15.8,-001.3,0015.14,0008.82,0008.27
2023-03-08 23:59:00,,0823.1,4.99,0.00,22.7,21.2,00.0,31.4,24.4,15.8,-001.6,0014.65,0008.84,0008.28
